Regional Weather Roundup
Issued by NWS

Home | Current Version | Previous Version | Graphics & Text | Print | Product List | Glossary On
Versions: 1 2 3 4 5 6 7 8 9 10 11 12 13 14 15 16 17 18 19 20 21 22 23 24 25 26 27 28 29 30 31 32 33 34 35 36 37 38 39 40 41 42 43 44 45 46 47 48 49 50
000
ASUS43 KLMK 192202
RWRKY
KENTUCKY REGIONAL WEATHER ROUNDUP
NATIONAL WEATHER SERVICE LOUISVILLE KY
500 PM EST SUN NOV 19 2017

NOTE "FAIR" INDICATES FEW OR NO CLOUDS BELOW 12,000 FEET
WITH NO SIGNIFICANT WEATHER AND/OR OBSTRUCTIONS TO VISIBILITY.

KYZ001>023-026-027-061>063-070>075-192300-
WESTERN AND SOUTH CENTRAL KENTUCKY

CITY           SKY/WX    TMP DP  RH WIND       PRES   REMARKS
PADUCAH        CLEAR     44  20  38 W7        30.20R
HENDERSON      CLEAR     40  21  46 W13       30.19R WCI  32
OWENSBORO      CLEAR     40  23  50 NW8       30.18  WCI  34
HOPKINSVILLE   CLEAR     43  21  41 NW10      30.17S
BOWLING GREEN  CLEAR     43  20  39 NW6       30.16S
GLASGOW        NOT AVBL
$$

KYZ024-025-028>034-038-045-046-053-192300-
NORTH CENTRAL KENTUCKY

CITY           SKY/WX    TMP DP  RH WIND       PRES   REMARKS
LOUISVILLE/SDF PTCLDY    39  24  55 W14       30.13R WCI  31
LOUISVILLE/LOU CLEAR     39  25  57 W13G18    30.13R WCI  31
FORT KNOX      CLEAR     38  24  57 W12       30.12R WCI  30
$$

KYZ035>037-039>044-047>052-055>060-089>105-192300-
NORTHEAST KENTUCKY

CITY           SKY/WX    TMP DP  RH WIND       PRES   REMARKS
LEXINGTON      PTCLDY    36  27  69 W9        30.10R WCI  29
COVINGTON      PTCLDY    36  25  64 W17       30.06R WCI  26
FRANKFORT      CLEAR     38  24  57 W7        30.09S WCI  33
$$

KYZ054-064>069-076>088-106>120-192300-
SOUTHEAST KENTUCKY

CITY           SKY/WX    TMP DP  RH WIND       PRES   REMARKS
JACKSON        CLOUDY    37  28  70 W8G23     30.07R WCI  31
LONDON         CLOUDY    39  28  64 W9        30.10R WCI  33
SOMERSET       MOCLDY    36  27  69 W10G18    30.15R WCI  28
MIDDLESBORO    CLOUDY    41  30  64 NW7       30.09R
MONTICELLO     MOCLDY    39  29  67 NW12      30.16R WCI  32
$$





USA.gov is the U.S. government's official web portal to all federal, state and local government web resources and services.